KT5AL Weather Reports


Display with metric or nautical units.
time (UTC)temp
F
wind
direction
speed
MPH
gust
MPH
rain 1hr
in
rain 24hr
in
rain mn
in
humidity
%
barometer
mb
20260903050004 83 112 7.0 10.0 0.00 0.00 0.00 65 1012.1
20260903045507 83 135 8.0 10.0 0.00 0.00 0.00 65 1012.1
20260903044006 83 135 9.0 14.0 0.00 0.00 0.00 63 1012.1
20260903043005 84 112 10.0 12.0 0.00 0.00 0.00 63 1011.7
20260903040504 85 112 10.0 16.0 0.00 0.00 0.00 60 1011.4
20260903035009 86 135 11.0 14.0 0.00 0.00 0.00 59 1011.4
20260903034504 86 112 12.0 18.0 0.00 0.00 0.00 58 1011.0
20260903034008 87 112 7.0 12.0 0.00 0.00 0.00 56 1011.0
20260903033505 87 112 12.0 16.0 0.00 0.00 0.00 56 1011.0
20260903031508 88 112 13.0 18.0 0.00 0.00 0.00 52 1010.7
20260903030508 88 112 9.0 14.0 0.00 0.00 0.00 51 1010.7
20260903030004 89 90 13.0 19.0 0.00 0.00 0.00 50 1010.7
20260903025508 89 67 14.0 21.0 0.00 0.00 0.00 51 1010.4
20260903024004 89 90 12.0 15.0 0.00 0.00 0.00 50 1010.4
20260903023004 89 112 10.0 14.0 0.00 0.00 0.00 51 1010.0
20260903022508 89 112 14.0 19.0 0.00 0.00 0.00 51 1009.7
20260903022005 89 112 12.0 14.0 0.00 0.00 0.00 51 1009.7
20260903021005 89 112 8.0 13.0 0.00 0.00 0.00 52 1009.7
20260903020004 89 112 9.0 11.0 0.00 0.00 0.00 52 1009.7
20260903014502 90 135 8.0 12.0 0.00 0.00 0.00 51 1009.4
20260903013504 90 112 8.0 13.0 0.00 0.00 0.00 50 1009.0
20260903013006 90 112 8.0 11.0 0.00 0.00 0.00 49 1009.0
20260903012007 91 112 7.0 12.0 0.00 0.00 0.00 48 1008.7
20260903005009 93 90 10.0 15.0 0.00 0.00 0.00 41 1008.0
20260903003003 94 90 12.0 16.0 0.00 0.00 0.00 39 1007.3
20260903002506 94 67 11.0 14.0 0.00 0.00 0.00 39 1007.3
20260903002003 94 67 11.0 14.0 0.00 0.00 0.00 38 1007.3
20260903001510 95 90 9.0 12.0 0.00 0.00 0.00 38 1007.3
20260903001035 95 90 10.0 12.0 0.00 0.00 0.00 38 1007.3
20260902235505 95 67 9.0 12.0 0.00 0.00 0.00 38 1007.0
20260902235008 95 90 14.0 19.0 0.00 0.00 0.00 37 1007.0
20260902234506 95 90 11.0 14.0 0.00 0.00 0.00 37 1007.0
20260902234003 96 90 13.0 17.0 0.00 0.00 0.00 37 1007.0
20260902233506 95 90 9.0 10.0 0.00 0.00 0.00 38 1007.0
20260902232003 95 67 12.0 14.0 0.00 0.00 0.00 37 1007.0
20260902231505 96 67 12.0 16.0 0.00 0.00 0.00 37 1006.6
20260902230505 95 45 10.0 14.0 0.00 0.00 0.00 38 1006.6
20260902230003 96 45 10.0 13.0 0.00 0.00 0.00 39 1006.6
20260902225506 96 45 8.0 10.0 0.00 0.00 0.00 39 1006.3
20260902225004 96 45 9.0 12.0 0.00 0.00 0.00 38 1006.3
20260902224502 96 90 8.0 11.0 0.00 0.00 0.00 37 1006.6
20260902223504 97 90 7.0 9.0 0.00 0.00 0.00 38 1006.6
20260902223008 97 112 10.0 12.0 0.00 0.00 0.00 37 1006.6
20260902222505 97 112 10.0 13.0 0.00 0.00 0.00 37 1006.6
20260902221505 96 67 8.0 9.0 0.00 0.00 0.00 37 1007.0
20260902221002 96 67 8.0 10.0 0.00 0.00 0.00 38 1007.0
20260902220007 96 135 6.0 7.0 0.00 0.00 0.00 39 1007.3
20260902215504 96 90 12.0 14.0 0.00 0.00 0.00 39 1007.3
20260902214008 95 22 4.0 7.0 0.00 0.00 0.00 38 1007.7
20260902211507 95 67 12.0 15.0 0.00 0.00 0.00 37 1007.0
20260902211005 96 67 13.0 18.0 0.00 0.00 0.00 38 1007.0
20260902204502 95 45 7.0 10.0 0.00 0.00 0.00 38 1007.7
20260902202505 94 22 3.0 6.0 0.00 0.00 0.00 41 1008.3
20260902201504 95 45 8.0 11.0 0.00 0.00 0.00 40 1008.3
20260902200503 95 67 3.0 5.0 0.00 0.00 0.00 41 1008.7
20260902195007 95 22 9.0 13.0 0.00 0.00 0.00 40 1008.7
20260902194505 94 22 9.0 13.0 0.00 0.00 0.00 43 1008.7
20260902193003 93 22 5.0 9.0 0.00 0.00 0.00 42 1009.0
20260902192004 94 67 10.0 13.0 0.00 0.00 0.00 40 1009.4
20260902191512 94 67 6.0 10.0 0.00 0.00 0.00 41 1009.4
20260902185003 94 22 9.0 12.0 0.00 0.00 0.00 43 1009.7
20260902182506 92 22 11.0 13.0 0.00 0.00 0.00 45 1010.7
20260902180507 93 67 6.0 8.0 0.00 0.00 0.00 42 1011.0
20260902175528 92 360 3.0 5.0 0.00 0.00 0.00 44 1011.4
20260902173502 93 157 9.0 10.0 0.00 0.00 0.00 44 1011.4
20260902172504 92 90 7.0 9.0 0.00 0.00 0.00 46 1011.7
20260902172009 93 157 6.0 9.0 0.00 0.00 0.00 44 1011.7
20260902171506 92 135 5.0 7.0 0.00 0.00 0.00 45 1011.7
20260902164506 92 90 9.0 10.0 0.00 0.00 0.00 46 1012.1
20260902163507 92 157 6.0 8.0 0.00 0.00 0.00 46 1012.1
20260902153506 89 157 7.0 10.0 0.00 0.00 0.00 52 1012.7
20260902152507 88 112 9.0 10.0 0.00 0.00 0.00 52 1012.7
20260902151004 88 180 8.0 10.0 0.00 0.00 0.00 54 1013.1
20260902150006 87 112 5.0 7.0 0.00 0.00 0.00 56 1013.1
20260902143003 87 180 7.0 9.0 0.00 0.00 0.00 59 1013.1
20260902142003 86 135 5.0 8.0 0.00 0.00 0.00 61 1013.4
20260902135508 84 157 7.0 10.0 0.00 0.00 0.00 66 1013.8
20260902134005 83 112 7.0 10.0 0.00 0.00 0.00 68 1014.1
20260902133503 82 112 6.0 9.0 0.00 0.00 0.00 70 1014.1
20260902132504 81 112 5.0 7.0 0.00 0.00 0.00 72 1014.4
20260902130504 79 202 1.0 3.0 0.00 0.00 0.00 78 1014.8
20260902124505 79 157 1.0 2.0 0.00 0.00 0.00 79 1015.4
20260902120502 77 157 3.0 4.0 0.00 0.00 0.00 79 1015.4
20260902120006 78 157 4.0 4.0 0.00 0.00 0.00 78 1015.4
20260902115504 78 135 3.0 4.0 0.00 0.00 0.00 78 1015.1
20260902115007 78 135 5.0 5.0 0.00 0.00 0.00 76 1015.1
20260902112506 78 135 5.0 7.0 0.00 0.00 0.00 76 1015.1
20260902112002 79 135 6.0 8.0 0.00 0.00 0.00 75 1015.1
20260902111505 78 112 5.0 7.0 0.00 0.00 0.00 76 1015.1
20260902111008 79 157 5.0 7.0 0.00 0.00 0.00 74 1015.1
20260902110003 79 135 5.0 6.0 0.00 0.00 0.00 74 1015.1
20260902105506 79 112 5.0 7.0 0.00 0.00 0.00 74 1015.1
20260902105004 79 135 5.0 7.0 0.00 0.00 0.00 73 1015.1
20260902104508 79 135 5.0 6.0 0.00 0.00 0.00 73 1015.1
20260902104005 79 135 5.0 7.0 0.00 0.00 0.00 72 1015.1
20260902102005 79 157 3.0 4.0 0.00 0.00 0.00 72 1015.1
20260902101508 79 157 2.0 2.0 0.00 0.00 0.00 72 1014.8
20260902095504 79 157 3.0 4.0 0.00 0.00 0.00 71 1014.8
20260902094008 80 157 3.0 4.0 0.00 0.00 0.00 69 1014.8
20260902093531 80 157 3.0 5.0 0.00 0.00 0.00 70 1014.8
20260902090507 81 180 3.0 5.0 0.00 0.00 0.00 69 1014.4
20260902090005 81 180 3.0 4.0 0.00 0.00 0.00 67 1014.4
20260902084507 81 157 5.0 6.0 0.00 0.00 0.00 67 1014.4
20260902084005 82 157 5.0 6.0 0.00 0.00 0.00 66 1014.4
20260902083508 82 157 5.0 6.0 0.00 0.00 0.00 67 1014.4
20260902082508 82 157 7.0 9.0 0.00 0.00 0.00 66 1014.4
20260902081005 83 157 6.0 9.0 0.00 0.00 0.00 64 1014.4
20260902080509 83 157 7.0 9.0 0.00 0.00 0.00 64 1014.1
20260902073033 84 157 10.0 12.0 0.00 0.00 0.00 63 1013.8
20260902072504 84 157 9.0 13.0 0.00 0.00 0.00 63 1013.8
20260902072007 84 157 8.0 10.0 0.00 0.00 0.00 62 1013.8
20260902071505 84 157 11.0 16.0 0.00 0.00 0.00 63 1013.8
20260902065506 84 157 11.0 14.0 0.00 0.00 0.00 63 1013.8
20260902064004 85 157 9.0 12.0 0.00 0.00 0.00 61 1013.8
20260902063004 85 112 13.0 18.0 0.00 0.00 0.00 61 1013.8
20260902062508 84 157 9.0 13.0 0.00 0.00 0.00 61 1013.8
20260902062004 85 157 10.0 14.0 0.00 0.00 0.00 61 1013.8
20260902061006 84 157 9.0 13.0 0.00 0.00 0.00 61 1013.4
20260902054505 84 112 6.0 8.0 0.00 0.00 0.00 61 1013.4
20260902054008 84 157 4.0 5.0 0.00 0.00 0.00 59 1013.4
20260902052007 84 135 7.0 11.0 0.00 0.00 0.00 59 1013.1